| time (UTC) | temp F | wind direction | speed MPH | gust MPH | rain 1hr in | rain 24hr in | rain mn in | humidity % | barometer mb |
| 20260831070156 | 65 | 91 | 0.0 | 0.0 | 0.00 | 0.00 | 0.00 | 95 | 1049.1 |
| 20260831065154 | 66 | 91 | 0.0 | 0.0 | 0.00 | 0.00 | 0.00 | 95 | 1049.2 |
| 20260831064151 | 65 | 88 | 0.0 | 0.0 | 0.00 | 0.00 | 0.00 | 95 | 1049.2 |
| 20260831063148 | 66 | 88 | 0.0 | 0.0 | 0.00 | 0.00 | 0.00 | 95 | 1049.2 |
| 20260831062148 | 66 | 88 | 0.0 | 0.0 | 0.00 | 0.00 | 0.00 | 95 | 1049.1 |
| 20260831061142 | 66 | 88 | 0.0 | 0.0 | 0.00 | 0.00 | 0.00 | 95 | 1049.0 |
| 20260831060137 | 66 | 85 | 0.0 | 0.0 | 0.00 | 0.00 | 0.00 | 95 | 1049.2 |
| 20260831055132 | 66 | 101 | 1.0 | 2.0 | 0.00 | 0.00 | 0.00 | 95 | 1049.3 |
| 20260831054131 | 66 | 92 | 0.0 | 0.0 | 0.00 | 0.00 | 0.00 | 95 | 1049.5 |
| 20260831053131 | 66 | 92 | 0.0 | 0.0 | 0.00 | 0.00 | 0.00 | 95 | 1049.5 |
| 20260831052129 | 66 | 92 | 0.0 | 0.0 | 0.00 | 0.00 | 0.00 | 95 | 1049.6 |
| 20260831051127 | 66 | 92 | 0.0 | 0.0 | 0.00 | 0.00 | 0.00 | 95 | 1049.6 |
| 20260831050126 | 66 | 92 | 0.0 | 0.0 | 0.00 | 0.00 | 0.00 | 95 | 1049.5 |
| 20260831045121 | 66 | 92 | 0.0 | 0.0 | 0.00 | 0.00 | 0.00 | 95 | 1049.5 |
| 20260831044117 | 66 | 92 | 0.0 | 0.0 | 0.00 | 0.00 | 0.00 | 95 | 1049.2 |
| 20260831043114 | 66 | 103 | 0.0 | 0.0 | 0.00 | 0.00 | 0.00 | 95 | 1049.4 |
| 20260831042114 | 66 | 103 | 0.0 | 0.0 | 0.00 | 0.00 | 0.00 | 95 | 1049.5 |
| 20260831041114 | 66 | 105 | 0.0 | 0.0 | 0.00 | 0.00 | 0.00 | 95 | 1049.4 |
| 20260831040109 | 66 | 92 | 0.0 | 0.0 | 0.00 | 0.01 | 0.01 | 95 | 1049.6 |
| 20260831035108 | 66 | 87 | 0.0 | 0.0 | 0.00 | 0.01 | 0.01 | 95 | 1049.5 |
| 20260831034109 | 66 | 87 | 0.0 | 0.0 | 0.00 | 0.01 | 0.01 | 95 | 1049.3 |
| 20260831033105 | 66 | 91 | 0.0 | 0.0 | 0.00 | 0.01 | 0.01 | 95 | 1049.4 |
| 20260831032100 | 67 | 90 | 0.0 | 0.0 | 0.00 | 0.01 | 0.01 | 95 | 1049.2 |
| 20260831031059 | 67 | 92 | 0.0 | 0.0 | 0.00 | 0.01 | 0.01 | 95 | 1049.3 |
| 20260831030058 | 67 | 111 | 2.0 | 2.0 | 0.00 | 0.01 | 0.01 | 95 | 1049.4 |
| 20260831025057 | 67 | 91 | 0.0 | 0.0 | 0.00 | 0.01 | 0.01 | 95 | 1049.7 |
| 20260831024052 | 67 | 91 | 0.0 | 0.0 | 0.00 | 0.01 | 0.01 | 95 | 1049.8 |
| 20260831023050 | 67 | 90 | 0.0 | 0.0 | 0.00 | 0.01 | 0.01 | 95 | 1049.9 |
| 20260831022046 | 67 | 110 | 1.0 | 2.0 | 0.00 | 0.01 | 0.01 | 95 | 1049.8 |
| 20260831021041 | 67 | 87 | 0.0 | 0.0 | 0.00 | 0.01 | 0.01 | 95 | 1049.7 |
| 20260831020037 | 67 | 92 | 0.0 | 0.0 | 0.00 | 0.01 | 0.01 | 95 | 1049.6 |
| 20260831015033 | 67 | 91 | 0.0 | 0.0 | 0.00 | 0.01 | 0.01 | 95 | 1049.8 |
| 20260831014029 | 67 | 91 | 0.0 | 0.0 | 0.00 | 0.01 | 0.01 | 95 | 1049.6 |
| 20260831013025 | 67 | 92 | 0.0 | 0.0 | 0.00 | 0.01 | 0.01 | 95 | 1049.6 |
| 20260831012020 | 67 | 92 | 0.0 | 0.0 | 0.00 | 0.01 | 0.01 | 95 | 1049.4 |
| 20260831011016 | 68 | 91 | 0.0 | 0.0 | 0.00 | 0.01 | 0.01 | 95 | 1049.7 |
| 20260831010013 | 68 | 91 | 0.0 | 0.0 | 0.00 | 0.01 | 0.01 | 95 | 1049.5 |
| 20260831005013 | 68 | 91 | 1.0 | 1.0 | 0.00 | 0.01 | 0.01 | 95 | 1049.2 |
| 20260831004010 | 68 | 103 | 1.0 | 1.0 | 0.00 | 0.01 | 0.01 | 95 | 1048.9 |
| 20260831003007 | 68 | 103 | 0.0 | 0.0 | 0.00 | 0.01 | 0.01 | 95 | 1048.8 |
| 20260831002007 | 68 | 103 | 0.0 | 0.0 | 0.00 | 0.01 | 0.01 | 95 | 1048.7 |
| 20260831001005 | 68 | 78 | 1.0 | 1.0 | 0.00 | 0.01 | 0.01 | 95 | 1048.5 |
| 20260831000005 | 68 | 89 | 0.0 | 0.0 | 0.00 | 0.01 | 0.01 | 95 | 1048.6 |
| 20260830235001 | 69 | 96 | 1.0 | 1.0 | 0.00 | 0.01 | 0.01 | 95 | 1048.6 |
| 20260830233957 | 69 | 100 | 0.0 | 0.0 | 0.07 | 0.01 | 0.01 | 95 | 1048.5 |
| 20260830232954 | 69 | 98 | 0.0 | 0.0 | 0.00 | 0.00 | 0.00 | 95 | 1048.4 |
| 20260830231952 | 69 | 90 | 0.0 | 0.0 | 0.00 | 0.00 | 0.00 | 95 | 1048.3 |